Vorticity
5 6 7 8 9 9 10 10 10 10 10 9 7 6 6 6 7 8 13 18 18 14 9 8 6 5 5 3 2 1 3 3 4 6 9 14 10 7 6 9 14 9 8 9 5 3 3 8 4 -2 6 4 2 8 6 7 7 9 11 6 5 1 3 10 6 4 -2 1 10 6 7 10 10 12 10 10 12 12 10 8 8 8 6 5 7 7 9 7
3 3 3 4 5 6 7 9 9 10 10 10 10 9 8 7 7 6 7 11 17 20 16 11 8 6 6 4 3 1 2 2 2 7 11 13 11 7 2 9 17 11 10 10 6 3 -1 6 6 1 4 4 2 6 9 8 6 6 5 2 -3 -4 6 9 3 4 2 5 10 9 7 7 10 11 8 7 10 12 12 9 5 6 6 5 7 7 9 7
5 4 3 3 2 3 3 5 6 8 9 10 10 10 11 9 8 7 7 7 9 15 20 19 13 9 7 5 4 2 2 1 3 5 8 10 10 11 6 6 14 14 12 8 9 5 -3 4 6 2 4 4 3 3 7 7 2 1 5 10 2 -3 8 9 5 6 6 6 8 11 8 6 8 7 6 5 6 8 6 6 6 7 5 7 12 9 6 6
7 7 7 6 5 4 3 3 3 4 6 7 8 10 10 10 10 9 8 8 7 7 13 19 20 16 10 7 5 3 2 1 4 4 2 8 10 10 10 7 8 14 14 7 10 7 -1 2 2 4 4 1 5 3 3 3 1 1 2 11 11 3 3 4 8 9 7 8 6 8 7 5 6 4 6 4 5 8 6 6 8 7 6 8 11 8 7 7
7 8 8 8 7 7 6 5 4 3 4 5 6 8 9 10 10 10 10 9 9 8 7 10 17 20 17 13 7 5 4 1 5 8 5 6 8 9 12 10 5 10 15 11 9 8 4 1 1 3 -0 3 5 -3 -1 2 1 -0 -7 -4 4 8 9 6 6 5 5 8 5 6 7 5 6 4 5 6 6 6 4 5 7 8 7 8 8 8 10 10
6 6 6 7 7 7 7 7 7 5 5 4 4 5 6 8 9 10 11 10 10 10 9 7 9 15 19 19 14 8 5 2 0 5 8 6 4 5 10 13 8 6 13 16 10 9 8 3 4 2 1 5 -5 -10 -0 0 -0 5 4 3 3 3 3 2 8 11 8 10 8 5 7 5 4 5 4 6 9 6 6 5 4 8 8 7 9 9 10 11
6 7 6 6 6 6 7 7 8 7 7 6 5 4 4 5 7 8 9 10 10 10 10 10 8 8 12 18 20 17 10 5 1 1 5 6 4 2 5 10 11 8 11 18 12 9 9 4 7 4 2 3 -2 1 -2 -8 -9 -6 4 7 5 5 2 -1 2 9 8 10 12 7 8 8 5 7 5 6 9 5 5 7 5 9 11 8 9 9 12 13
6 7 7 8 7 7 7 7 7 7 8 8 7 5 5 4 4 6 7 8 9 10 9 9 11 9 8 10 16 21 20 13 6 2 1 4 6 2 3 5 10 12 10 16 14 12 10 5 8 4 3 3 -0 -6 -6 14 8 -9 3 3 4 8 5 4 -0 6 9 7 9 6 9 11 7 7 7 8 6 1 4 8 7 9 11 9 8 9 14 15
5 5 5 6 6 7 7 7 7 7 7 7 8 7 6 5 4 4 4 6 7 9 9 8 9 9 10 9 9 15 23 24 13 6 3 2 4 3 3 2 5 11 12 15 14 14 12 8 9 5 5 2 -4 -9 0 21 5 -3 -1 -12 11 16 0 7 5 5 4 4 12 6 6 9 10 9 6 9 6 2 7 9 9 10 11 10 9 10 13 13
3 3 3 3 3 4 4 6 6 7 7 7 7 8 8 7 6 5 4 4 5 6 7 8 9 8 9 9 9 11 14 21 21 14 8 3 3 2 3 3 3 6 10 15 13 12 14 12 9 6 6 -3 -10 -8 5 8 -1 18 6 -16 17 14 -1 11 11 14 6 7 13 3 7 8 9 11 4 8 8 6 10 10 11 11 11 10 10 11 10 11
3 3 3 2 2 3 4 5 5 6 6 6 7 6 7 8 7 6 5 4 4 4 4 5 7 8 9 8 10 11 7 13 20 21 17 9 5 3 2 2 3 4 5 12 14 11 12 14 9 4 7 2 -12 -18 5 14 -4 2 1 -0 11 -9 2 21 15 20 3 4 14 0 8 10 8 10 4 7 6 6 9 9 11 11 12 10 10 11 7 12
3 4 3 3 3 3 4 5 5 6 6 6 7 6 6 6 7 7 7 6 5 5 4 4 5 5 7 9 9 9 7 10 12 17 22 18 10 6 5 2 1 4 4 8 13 12 10 13 11 3 4 7 1 -9 7 22 3 -6 -2 12 15 -6 6 14 7 12 1 8 14 4 10 9 9 8 3 8 7 8 9 8 10 11 13 9 10 11 8 13
3 4 3 3 3 3 2 3 4 5 6 7 7 7 7 6 6 6 6 7 6 6 5 4 4 4 4 6 10 8 7 12 10 11 17 22 20 12 7 4 1 2 4 6 10 13 10 8 9 7 5 4 6 1 -2 7 13 14 6 5 12 4 -0 -2 -4 3 13 16 3 4 13 6 10 6 2 9 8 9 9 7 7 9 14 10 11 11 8 14
3 3 4 4 3 4 3 3 3 3 4 6 7 7 7 7 6 6 6 6 6 6 6 6 5 6 4 4 6 6 7 10 10 9 10 16 24 21 13 8 4 1 3 5 7 12 12 7 6 8 8 4 7 7 -8 -11 3 10 3 -4 0 10 13 6 3 8 16 10 -2 8 11 2 7 4 1 9 10 8 7 8 6 7 14 11 10 8 7 15
4 4 4 4 4 4 4 3 4 3 3 3 5 6 7 8 7 7 6 5 6 6 6 7 6 6 6 5 4 4 7 8 9 10 8 10 16 22 21 12 7 4 2 3 4 9 13 9 5 7 11 8 6 8 -4 -9 4 9 4 -3 -4 9 17 8 10 22 13 1 5 12 6 1 4 3 3 5 7 7 4 7 7 8 12 11 11 7 5 11
7 7 6 5 5 5 4 4 4 4 4 4 3 4 4 6 7 8 8 6 6 6 6 6 6 7 6 6 5 5 6 6 6 7 8 10 10 15 22 20 14 7 3 4 3 5 11 11 7 6 10 11 7 6 3 -5 -2 6 5 4 5 2 5 6 10 18 10 1 8 11 5 3 2 7 11 6 5 6 4 6 6 8 12 11 12 9 4 6
8 8 8 7 6 6 6 5 5 5 6 6 5 5 4 4 4 6 7 8 7 6 6 5 6 8 7 7 7 7 7 6 5 6 7 10 10 10 15 22 21 13 6 4 3 3 6 10 12 9 6 8 10 8 9 -0 -8 5 10 8 12 1 -6 4 4 6 9 2 3 8 2 -1 2 7 11 11 7 4 4 6 4 6 11 12 10 11 7 4
7 7 7 7 7 7 7 6 6 6 5 6 7 6 7 7 5 4 5 7 8 7 7 6 8 7 7 10 9 7 7 7 5 5 7 7 10 11 10 15 20 20 12 4 4 5 3 7 11 11 8 7 13 12 11 9 1 6 10 5 10 11 4 3 -1 5 17 9 5 10 2 -1 2 -1 5 13 9 5 3 4 6 5 7 11 11 10 8 6
7 6 6 6 6 6 7 7 6 5 5 5 6 6 7 8 7 8 8 5 5 7 8 8 9 7 6 8 7 6 7 5 4 5 7 6 6 9 10 10 14 21 21 12 6 4 4 6 5 7 10 10 12 10 7 13 14 8 7 2 -4 4 13 9 3 6 14 10 4 10 7 4 3 -4 4 13 9 7 5 2 6 6 6 10 10 9 8 7
9 8 8 6 6 6 6 7 6 6 6 5 6 5 6 7 6 8 10 8 6 5 7 8 9 6 6 7 6 7 8 6 5 5 5 7 7 7 9 10 9 15 22 21 14 7 4 3 3 4 9 13 10 7 7 10 17 9 0 2 -5 -2 6 8 16 7 -9 -1 11 14 9 3 5 2 1 7 8 8 7 5 5 5 7 9 10 9 9 8
7 8 9 9 8 8 8 7 7 7 6 6 6 5 5 6 5 7 8 9 8 7 6 7 8 8 6 7 7 7 9 8 7 6 5 6 7 6 7 9 9 11 17 23 19 11 5 1 4 4 6 15 11 7 9 9 16 3 -11 3 6 4 -0 -3 18 7 -22 -4 19 15 8 3 7 7 -0 1 5 7 10 8 5 5 6 8 10 10 9 9
3 4 6 7 8 9 9 8 7 7 7 7 6 6 6 5 5 5 6 8 9 9 8 7 7 9 6 5 7 7 8 10 8 6 5 5 7 8 7 6 8 10 11 15 16 14 11 8 7 5 5 11 12 11 8 6 13 -0 -8 8 5 2 5 -0 13 12 -12 -11 -2 0 7 5 4 6 1 2 5 4 7 7 4 5 6 7 9 9 10 9
2 2 2 4 5 7 9 9 8 7 7 7 7 7 6 5 5 4 4 6 8 10 10 9 8 8 8 6 8 8 7 9 8 7 6 3 6 7 6 8 8 8 8 9 13 14 18 21 15 8 6 6 8 14 10 4 8 6 6 9 -2 -0 11 6 10 16 1 -6 4 15 19 13 8 7 3 3 5 3 5 7 6 6 5 5 7 7 9 9
2 2 2 3 4 5 6 8 9 9 8 6 6 7 6 6 6 6 6 4 6 9 8 9 9 9 9 5 5 8 9 7 6 8 8 5 5 4 5 10 7 5 7 8 11 10 16 25 19 9 7 5 7 11 12 7 4 9 7 -2 -1 6 9 6 6 13 12 8 16 21 18 16 9 6 6 2 2 6 6 7 7 7 5 4 5 7 7 7
1 1 3 4 3 5 6 7 8 9 10 9 7 6 6 6 7 8 10 8 6 7 5 6 9 11 11 7 8 9 6 6 7 9 10 7 5 4 4 6 6 9 10 7 8 7 11 19 18 13 8 4 6 7 10 13 7 6 7 3 3 -3 -2 7 5 5 8 1 5 7 6 14 10 4 8 4 3 5 4 5 7 6 5 6 6 6 7 7
6 6 6 7 6 4 3 5 7 8 9 9 9 8 6 6 7 6 9 12 12 8 6 6 8 11 12 11 11 8 5 9 10 7 7 8 8 7 5 3 4 9 10 9 6 6 11 15 15 17 13 6 5 3 5 14 11 3 6 13 7 -7 -1 12 5 3 4 -7 -6 -2 -4 4 10 6 5 7 6 1 -0 4 5 4 4 5 4 6 8 7
9 8 9 11 11 9 5 3 4 6 8 8 8 8 7 5 5 5 5 8 10 9 8 6 4 6 8 7 7 6 8 10 9 7 7 10 11 9 6 4 4 6 9 8 4 7 14 14 14 16 14 9 5 2 4 11 13 7 8 12 8 1 2 4 0 5 11 -1 -10 1 15 20 19 11 5 11 10 3 4 6 4 4 4 3 2 5 7 6
5 5 5 6 8 10 9 6 3 3 3 5 7 7 6 6 5 4 4 3 6 9 9 9 8 5 3 3 4 5 5 5 7 10 10 8 7 7 7 7 7 5 6 5 4 10 11 10 14 13 14 17 12 8 8 9 10 8 10 10 6 6 -0 -4 0 4 7 3 -4 8 21 14 13 14 7 8 11 7 5 4 4 6 3 3 3 2 3 3
4 4 4 4 5 8 10 8 7 5 2 0 3 5 6 6 4 4 4 2 6 7 4 8 12 10 7 7 10 9 7 6 8 8 7 8 9 9 9 10 9 4 3 2 5 8 6 7 12 7 10 20 21 14 9 8 8 8 12 8 4 8 1 -8 -2 5 4 -1 -2 3 -2 -8 5 20 13 6 8 10 7 2 2 6 5 6 6 3 2 1
4 4 4 5 5 7 9 8 8 8 7 3 1 2 3 4 4 5 1 -2 3 3 -1 2 6 7 8 9 9 9 8 9 8 6 5 9 10 9 7 6 6 5 4 2 3 7 7 7 6 6 10 14 16 15 9 6 5 9 11 5 2 7 7 -2 -3 12 16 4 1 -2 -2 11 19 19 17 8 1 3 12 14 5 4 8 7 6 6 4 3
6 5 5 4 4 8 9 8 10 10 7 8 6 2 3 3 3 1 -3 1 5 2 -1 1 4 5 6 7 6 5 7 8 6 5 7 8 7 6 6 6 5 6 6 5 5 6 6 7 7 9 14 13 11 11 11 12 13 15 11 4 4 4 8 7 -0 7 10 4 8 -0 -2 12 8 7 19 15 7 2 4 13 10 6 10 10 9 7 5 6
5 4 5 4 3 8 9 6 12 12 7 10 9 5 6 5 1 0 3 7 6 4 8 6 2 4 5 5 7 5 6 8 6 4 6 9 9 8 8 9 9 8 9 11 13 11 5 7 11 11 15 16 10 11 19 16 9 11 7 3 7 5 4 9 7 8 3 5 22 15 3 4 -2 11 25 14 14 14 2 -0 0 4 8 5 8 11 9 8
5 5 5 6 6 10 11 8 10 12 10 11 9 8 9 2 0 8 11 8 5 5 11 7 3 6 5 4 8 10 8 7 7 7 4 5 7 7 7 9 7 5 7 6 7 9 7 4 4 4 10 12 7 12 22 15 2 1 5 1 2 5 3 3 9 10 2 9 22 10 3 5 -1 8 16 10 12 11 7 10 5 6 9 3 8 16 14 7
8 7 7 9 9 9 13 11 11 13 11 9 10 10 5 -1 5 12 9 8 10 5 2 3 5 7 7 5 4 8 11 7 6 8 8 6 6 5 5 7 8 6 9 7 3 6 5 3 5 4 6 10 10 11 17 22 14 7 14 12 -0 1 2 -3 3 8 5 7 10 6 11 14 4 -0 5 15 22 10 5 17 15 9 9 9 11 9 4 6
9 9 9 9 8 8 10 11 11 12 9 9 9 4 -1 3 12 13 9 10 11 7 4 5 6 5 6 8 2 2 10 14 10 6 7 8 7 7 7 7 10 10 9 8 6 8 6 5 9 6 6 9 11 13 17 23 19 13 23 19 1 -1 2 -3 -3 1 7 8 5 9 14 14 6 -0 2 13 24 18 6 10 16 10 8 12 11 6 10 21
8 9 10 10 9 7 8 10 11 10 8 8 3 -3 2 11 13 10 10 12 8 5 5 4 5 4 3 7 6 1 3 13 13 6 7 9 4 5 7 7 9 9 10 9 8 9 9 13 15 8 5 6 6 11 14 15 18 23 23 13 8 9 4 4 1 -6 -0 7 9 10 8 10 9 3 4 8 15 19 10 10 16 13 14 16 9 7 11 11
8 9 11 11 9 9 11 14 14 11 11 8 -2 -2 8 12 10 9 9 11 10 7 4 1 3 4 2 5 8 5 5 9 9 7 8 9 6 6 6 7 7 6 9 10 9 9 7 12 21 18 13 9 7 9 11 13 16 14 6 6 23 21 3 6 3 -11 -4 3 1 6 9 7 5 6 7 7 20 26 17 19 17 11 19 21 13 11 4 -2
7 8 9 8 7 10 11 12 14 13 12 7 1 6 13 9 9 12 9 10 10 7 5 4 3 4 4 4 5 9 12 7 3 9 11 7 7 7 4 5 7 7 8 8 8 12 7 1 6 18 27 21 11 5 3 11 13 8 6 15 32 26 7 11 4 -13 2 13 -4 -6 9 11 8 13 8 0 10 8 3 13 9 3 13 13 12 8 1 13
8 9 11 10 10 9 7 10 13 10 6 3 4 11 15 14 15 15 12 11 8 6 7 5 5 4 3 3 5 11 17 16 13 13 10 5 7 8 5 6 7 7 8 6 7 12 12 4 -10 -1 25 27 15 9 3 6 14 20 17 5 13 26 18 16 13 -5 -3 11 5 -5 0 8 11 16 8 -0 6 7 5 -1 -16 -4 11 4 9 4 -2 16
10 15 16 14 14 9 9 13 11 7 6 7 11 16 16 16 17 15 14 13 9 7 7 5 6 4 2 3 4 6 11 19 26 25 14 8 11 11 9 7 6 10 11 6 7 9 11 15 1 -6 12 13 3 4 5 7 13 22 21 -6 -17 8 23 21 17 9 2 -1 -1 2 5 4 5 13 16 8 5 11 9 -16 -24 11 20 -0 8 9 1 3
11 19 18 16 14 11 17 21 15 13 13 9 12 17 17 16 16 15 15 13 11 9 7 6 5 3 4 4 4 8 9 8 15 22 20 14 14 17 20 18 7 9 16 11 5 3 3 11 5 -9 -4 4 11 14 6 6 10 13 24 18 -7 -11 11 31 24 10 15 14 -3 -5 7 9 2 3 15 19 10 6 8 6 15 34 25 6 9 5 -4 -7
13 18 21 23 20 16 21 20 16 17 13 10 16 19 17 18 16 16 17 14 11 10 8 9 7 3 4 4 2 4 4 3 5 10 15 17 17 12 11 21 20 12 17 19 15 10 4 7 10 0 -9 -4 17 28 13 4 8 8 13 26 22 -7 -22 5 23 9 5 14 12 1 -5 -1 5 5 7 12 11 6 8 22 28 21 18 24 22 10 3 -2
15 18 26 31 24 18 17 12 16 24 18 17 24 20 17 19 17 16 18 14 11 10 7 8 9 7 7 7 7 0 -6 -1 -2 -6 4 19 26 21 10 16 28 24 18 18 20 20 10 5 12 13 3 -7 -3 14 20 11 8 10 7 11 25 20 -10 -21 1 23 17 1 5 13 4 -5 -4 1 4 2 5 9 3 6 14 11 14 21 15 9 7 2
18 21 28 30 23 19 17 15 23 31 25 23 24 19 19 20 16 16 16 11 11 11 10 11 11 11 13 9 7 1 -6 -1 -2 -13 -8 2 9 24 32 25 23 24 22 15 14 23 22 12 7 5 3 -2 -9 -2 16 18 9 10 13 11 9 23 37 12 -20 -1 27 19 7 8 13 15 3 -7 -2 2 9 19 12 7 15 13 10 14 13 10 5 -1
22 23 27 31 27 22 20 20 25 24 21 22 18 14 16 16 12 15 14 11 12 10 9 14 14 14 18 15 14 15 6 2 2 -7 -10 -9 -11 6 28 25 12 14 23 22 11 13 22 18 7 -0 2 4 -4 -11 -3 8 14 10 5 14 13 7 30 40 1 -23 -7 13 25 15 2 13 15 4 4 4 7 14 10 14 22 11 5 14 16 16 18 9
25 24 26 27 21 17 18 22 27 25 23 24 19 16 17 15 12 13 13 10 11 12 16 21 22 22 21 10 1 9 15 12 8 2 -2 -12 -21 -3 20 14 5 11 21 25 13 3 15 23 13 5 8 15 15 7 1 2 14 19 5 4 19 16 16 30 24 4 -17 -23 1 20 12 5 6 13 20 11 2 -1 -4 11 25 11 4 13 8 1 11 18
25 25 27 24 19 22 26 26 28 31 29 30 32 32 25 18 15 17 21 16 9 13 22 23 20 27 41 43 27 17 24 27 13 2 9 0 -24 -13 15 12 2 8 15 19 10 -0 11 25 24 21 15 9 11 15 16 9 6 20 26 15 13 21 25 21 16 23 18 -10 -22 -7 9 11 0 1 16 15 4 -3 -9 1 20 14 4 12 14 -3 -10 2
22 21 20 20 24 31 33 28 24 21 21 23 32 39 33 22 17 18 27 32 21 13 17 14 3 3 17 34 37 26 23 34 31 8 6 16 -8 -29 -5 19 10 -2 5 19 9 -10 -4 5 7 25 39 28 10 -2 2 14 13 12 24 27 18 17 22 18 8 13 21 15 4 -7 -6 11 6 -13 -8 4 8 11 4 -4 6 16 7 -1 8 9 -5 -8
19 19 20 26 32 36 37 37 31 23 20 19 21 32 37 31 24 20 22 31 30 23 26 23 7 -2 -2 -3 2 9 4 13 38 32 13 26 20 -22 -25 10 18 1 8 37 37 2 -12 -8 -19 -15 19 44 38 11 -12 -9 7 11 11 13 14 15 20 21 16 15 13 17 29 17 -5 7 17 2 -6 -8 -10 7 25 18 10 16 12 -2 1 10 4 2
20 23 30 33 32 31 29 27 31 33 29 19 10 16 28 30 32 36 29 22 21 22 28 28 11 1 8 15 22 30 16 -5 5 16 4 6 13 -8 -24 -14 3 8 2 20 51 35 -2 -3 -1 -19 -22 -8 13 29 16 -11 -14 -0 5 8 13 9 6 10 14 20 20 14 19 21 9 7 8 4 7 1 -18 -15 3 9 10 16 13 5 11 14 1 4
27 27 29 29 27 27 20 12 18 28 28 25 16 13 19 17 16 33 42 29 16 14 19 23 20 10 8 17 19 16 14 9 9 16 14 2 -8 -6 -4 -16 -15 6 2 -4 29 42 11 -3 5 1 -11 -22 -17 10 28 23 13 -2 -22 -17 11 17 4 2 9 21 33 23 4 5 18 25 20 11 13 12 2 -2 -7 -16 -15 -2 5 2 9 19 6 -8
31 26 20 22 26 28 22 12 14 19 23 32 29 18 20 16 1 8 30 31 18 16 20 20 20 17 17 28 28 10 6 20 24 22 28 29 13 -1 1 -4 -15 -9 4 11 21 27 24 15 1 -3 5 5 -5 -10 2 24 33 13 -16 -24 -1 18 13 3 -2 5 29 39 21 7 9 14 22 28 24 13 13 21 17 1 -12 -13 -2 8 6 10 18 8
Height
5895 5894 5893 5892 5892 5891 5890 5890 5889 5889 5888 5888 5887 5887 5887 5886 5886 5886 5885 5885 5885 5885 5885 5885 5886 5886 5886 5886 5887 5887 5887 5888 5888 5889 5889 5889 5890 5890 5890 5890 5891 5891 5892 5892 5893 5894 5895 5898 5898 5899 5901 5902 5903 5903 5904 5905 5905 5905 5905 5905 5905 5905 5905 5907 5907 5907 5905 5904 5904 5903 5903 5903 5903 5903 5902 5902 5902 5902 5902 5902 5902 5902 5902 5902 5902 5903 5903 5904
5894 5894 5893 5892 5891 5891 5890 5889 5889 5888 5888 5887 5887 5886 5886 5886 5885 5885 5885 5884 5884 5884 5884 5884 5884 5885 5885 5885 5886 5886 5887 5887 5888 5888 5889 5889 5890 5890 5889 5890 5890 5891 5892 5892 5893 5893 5894 5897 5899 5899 5900 5902 5903 5903 5904 5905 5905 5905 5905 5905 5905 5904 5905 5907 5907 5906 5906 5905 5904 5904 5903 5903 5903 5903 5902 5902 5902 5902 5903 5903 5902 5902 5902 5901 5901 5902 5903 5903
5894 5893 5893 5892 5891 5891 5890 5889 5888 5888 5887 5886 5886 5886 5885 5885 5884 5884 5884 5884 5883 5883 5883 5883 5883 5883 5884 5884 5885 5885 5886 5887 5888 5889 5889 5889 5889 5889 5889 5890 5890 5891 5891 5892 5892 5893 5893 5897 5899 5900 5901 5902 5902 5902 5903 5904 5904 5905 5905 5905 5905 5905 5906 5907 5907 5906 5906 5905 5904 5904 5904 5904 5904 5903 5903 5903 5903 5903 5903 5903 5902 5902 5902 5901 5901 5902 5903 5903
5894 5893 5892 5892 5891 5890 5889 5889 5888 5887 5887 5886 5885 5885 5885 5884 5884 5883 5883 5883 5883 5883 5882 5882 5882 5882 5882 5883 5883 5884 5885 5886 5888 5889 5888 5888 5889 5889 5889 5889 5890 5890 5891 5891 5892 5892 5893 5895 5897 5898 5900 5901 5901 5901 5903 5904 5904 5905 5905 5905 5905 5905 5906 5906 5906 5906 5905 5905 5905 5904 5904 5904 5904 5904 5904 5903 5903 5903 5903 5903 5902 5902 5902 5902 5902 5902 5903 5903
5893 5892 5891 5891 5890 5889 5889 5888 5888 5887 5886 5885 5885 5884 5884 5883 5883 5883 5882 5882 5882 5882 5881 5881 5881 5881 5881 5882 5882 5883 5884 5886 5888 5887 5887 5888 5888 5888 5889 5889 5889 5889 5890 5891 5891 5892 5892 5893 5895 5896 5898 5899 5900 5900 5902 5904 5905 5906 5906 5906 5906 5905 5906 5906 5906 5905 5905 5905 5905 5904 5905 5904 5904 5904 5904 5904 5903 5903 5903 5903 5902 5902 5902 5902 5902 5902 5903 5903
5892 5891 5891 5890 5889 5889 5888 5887 5887 5886 5885 5885 5884 5884 5883 5883 5882 5882 5881 5881 5881 5881 5881 5880 5880 5880 5880 5880 5881 5882 5883 5885 5886 5886 5886 5887 5887 5888 5888 5888 5889 5889 5889 5890 5891 5891 5892 5893 5894 5895 5896 5898 5899 5900 5902 5904 5905 5906 5906 5906 5906 5906 5906 5906 5905 5905 5905 5905 5905 5904 5905 5905 5905 5905 5904 5904 5903 5902 5902 5903 5902 5902 5902 5902 5902 5902 5902 5902
5891 5890 5890 5889 5888 5888 5887 5886 5886 5885 5885 5884 5883 5883 5882 5882 5882 5881 5881 5880 5880 5880 5880 5879 5879 5879 5879 5879 5879 5880 5882 5883 5885 5885 5885 5886 5886 5887 5887 5888 5888 5889 5889 5890 5891 5892 5892 5893 5894 5895 5896 5897 5898 5900 5901 5904 5907 5908 5907 5907 5906 5906 5906 5906 5905 5906 5905 5904 5904 5904 5905 5905 5905 5905 5904 5904 5904 5902 5902 5903 5902 5902 5902 5902 5902 5902 5902 5902
5890 5889 5889 5888 5887 5887 5886 5886 5885 5884 5884 5883 5883 5882 5882 5881 5881 5880 5880 5880 5879 5879 5879 5878 5878 5878 5878 5878 5878 5879 5880 5882 5884 5884 5883 5885 5885 5886 5886 5887 5887 5888 5889 5890 5891 5891 5892 5893 5894 5894 5895 5897 5898 5899 5901 5905 5909 5910 5909 5908 5907 5906 5906 5906 5906 5906 5906 5904 5904 5905 5905 5905 5905 5905 5904 5904 5904 5902 5902 5903 5902 5902 5902 5902 5902 5902 5902 5902
5889 5888 5888 5887 5887 5886 5885 5885 5884 5884 5883 5882 5882 5881 5881 5880 5880 5880 5879 5879 5879 5878 5878 5878 5878 5877 5877 5877 5877 5878 5878 5880 5882 5881 5882 5883 5884 5884 5885 5885 5886 5887 5888 5889 5890 5890 5891 5892 5893 5894 5895 5896 5896 5898 5901 5905 5909 5911 5911 5909 5907 5908 5907 5907 5906 5905 5906 5905 5904 5905 5905 5905 5905 5905 5904 5904 5904 5902 5901 5903 5902 5902 5902 5902 5902 5903 5903 5902
5888 5887 5887 5886 5886 5885 5884 5884 5883 5883 5882 5881 5881 5880 5880 5879 5879 5879 5879 5878 5878 5878 5877 5877 5877 5876 5876 5876 5876 5877 5877 5878 5879 5879 5880 5882 5883 5883 5883 5884 5885 5886 5887 5888 5889 5890 5891 5892 5893 5893 5894 5894 5894 5896 5900 5905 5909 5910 5911 5909 5907 5907 5907 5907 5907 5906 5905 5905 5904 5904 5905 5904 5904 5905 5904 5903 5903 5902 5902 5902 5902 5902 5902 5902 5903 5903 5903 5903
5887 5886 5886 5885 5885 5884 5883 5883 5882 5882 5881 5880 5880 5879 5879 5878 5878 5878 5877 5877 5877 5877 5877 5876 5876 5876 5875 5875 5876 5875 5875 5876 5877 5877 5879 5880 5881 5882 5882 5883 5884 5885 5886 5887 5888 5889 5890 5892 5892 5892 5892 5892 5892 5894 5896 5901 5905 5907 5911 5912 5909 5907 5907 5906 5906 5906 5906 5906 5905 5904 5905 5904 5904 5904 5903 5903 5903 5902 5902 5902 5902 5902 5902 5903 5903 5903 5903 5903
5885 5885 5885 5884 5883 5883 5882 5882 5881 5881 5880 5879 5879 5878 5878 5877 5877 5876 5876 5876 5876 5876 5876 5875 5875 5875 5875 5874 5874 5874 5874 5875 5875 5876 5877 5878 5879 5881 5882 5882 5882 5883 5884 5885 5886 5887 5889 5890 5890 5890 5891 5892 5893 5894 5895 5897 5899 5902 5907 5911 5910 5909 5908 5907 5908 5909 5908 5908 5905 5904 5905 5904 5904 5904 5903 5904 5903 5902 5902 5902 5903 5902 5903 5903 5903 5903 5904 5904
5883 5883 5883 5882 5882 5881 5881 5880 5880 5879 5879 5878 5877 5877 5876 5876 5875 5875 5875 5874 5874 5874 5874 5874 5874 5874 5874 5873 5874 5873 5873 5874 5874 5874 5875 5876 5877 5879 5880 5881 5881 5882 5883 5884 5885 5886 5887 5887 5888 5889 5891 5891 5892 5894 5896 5897 5898 5899 5901 5905 5907 5908 5908 5908 5909 5909 5909 5908 5905 5904 5904 5904 5904 5904 5903 5903 5903 5903 5902 5903 5903 5903 5903 5903 5903 5904 5904 5904
5881 5881 5880 5880 5880 5879 5879 5878 5878 5878 5877 5876 5876 5875 5875 5874 5874 5874 5873 5873 5873 5872 5872 5872 5872 5873 5872 5872 5873 5872 5871 5872 5872 5873 5873 5874 5875 5876 5878 5879 5880 5880 5881 5883 5883 5884 5885 5885 5886 5887 5889 5891 5892 5894 5893 5894 5896 5898 5899 5901 5903 5905 5907 5909 5908 5906 5908 5907 5903 5903 5904 5904 5903 5903 5903 5903 5903 5903 5902 5902 5903 5903 5903 5903 5904 5904 5904 5905
5879 5878 5878 5878 5877 5877 5877 5876 5876 5876 5875 5875 5874 5874 5873 5873 5872 5872 5871 5871 5871 5871 5870 5870 5870 5871 5871 5871 5871 5871 5871 5871 5871 5871 5872 5873 5873 5874 5875 5877 5878 5879 5880 5881 5882 5883 5883 5884 5884 5885 5888 5890 5892 5892 5891 5892 5894 5896 5899 5901 5902 5903 5906 5910 5907 5906 5908 5905 5903 5903 5904 5903 5903 5903 5903 5903 5903 5903 5902 5903 5903 5903 5903 5904 5904 5904 5904 5905
5876 5876 5875 5875 5875 5874 5874 5874 5873 5873 5873 5873 5872 5872 5871 5871 5870 5870 5870 5869 5869 5869 5869 5868 5868 5869 5869 5869 5869 5869 5870 5869 5869 5870 5870 5871 5872 5872 5873 5874 5876 5877 5878 5879 5880 5881 5882 5882 5883 5884 5887 5888 5889 5891 5891 5891 5893 5896 5898 5900 5903 5904 5906 5909 5906 5906 5907 5903 5902 5903 5903 5903 5903 5903 5903 5902 5903 5902 5902 5903 5903 5903 5903 5904 5904 5904 5904 5905
5873 5873 5872 5872 5872 5872 5872 5871 5871 5870 5870 5870 5870 5869 5869 5869 5868 5868 5868 5867 5867 5867 5866 5866 5867 5867 5866 5867 5867 5867 5868 5868 5867 5868 5869 5869 5870 5871 5871 5872 5873 5874 5875 5876 5877 5879 5880 5880 5882 5883 5885 5886 5887 5889 5889 5889 5892 5895 5896 5899 5902 5904 5907 5908 5905 5904 5904 5902 5902 5902 5902 5902 5902 5902 5902 5902 5902 5902 5902 5902 5902 5903 5903 5903 5904 5904 5904 5905
5870 5870 5869 5869 5869 5869 5869 5868 5868 5867 5867 5867 5867 5866 5866 5866 5866 5866 5866 5866 5865 5864 5864 5864 5865 5865 5864 5865 5866 5865 5866 5866 5865 5866 5867 5867 5868 5869 5869 5870 5871 5871 5872 5873 5875 5877 5877 5879 5880 5881 5882 5883 5885 5885 5886 5889 5892 5894 5896 5898 5900 5903 5907 5908 5904 5902 5902 5901 5901 5902 5902 5902 5901 5901 5901 5901 5901 5902 5901 5902 5902 5902 5903 5903 5903 5904 5904 5905
5867 5866 5866 5865 5865 5866 5866 5865 5865 5865 5864 5864 5864 5863 5863 5864 5863 5863 5864 5863 5862 5862 5861 5862 5863 5862 5861 5864 5863 5863 5864 5865 5864 5864 5864 5865 5866 5867 5868 5868 5868 5869 5870 5871 5873 5874 5875 5876 5877 5878 5880 5881 5883 5884 5886 5890 5892 5894 5897 5899 5901 5902 5906 5907 5905 5902 5901 5901 5900 5900 5901 5901 5901 5901 5900 5901 5901 5901 5901 5901 5901 5902 5902 5903 5903 5904 5904 5904
5864 5863 5862 5862 5861 5862 5862 5862 5862 5862 5861 5860 5860 5860 5860 5860 5859 5860 5861 5860 5859 5860 5859 5859 5861 5860 5859 5861 5861 5861 5863 5863 5862 5862 5862 5863 5864 5865 5865 5866 5866 5867 5868 5869 5870 5871 5872 5872 5873 5877 5880 5881 5883 5885 5887 5890 5891 5893 5895 5899 5902 5904 5905 5905 5904 5901 5899 5901 5900 5899 5901 5900 5900 5901 5899 5899 5900 5900 5900 5901 5901 5902 5902 5903 5903 5903 5904 5904
5861 5860 5859 5858 5857 5857 5858 5858 5858 5858 5857 5857 5857 5856 5857 5857 5856 5856 5858 5857 5857 5856 5856 5857 5858 5858 5856 5857 5859 5859 5860 5860 5860 5860 5860 5861 5861 5862 5863 5864 5864 5865 5866 5866 5867 5868 5867 5868 5872 5876 5880 5881 5883 5884 5886 5888 5889 5891 5892 5897 5901 5903 5905 5903 5904 5901 5897 5900 5901 5898 5900 5899 5899 5900 5898 5898 5899 5899 5900 5900 5900 5901 5902 5902 5903 5903 5903 5904
5858 5857 5856 5855 5854 5854 5854 5854 5854 5854 5854 5853 5853 5853 5853 5853 5852 5853 5853 5855 5854 5852 5853 5854 5854 5856 5854 5853 5856 5857 5856 5858 5858 5857 5858 5859 5859 5860 5861 5861 5862 5863 5864 5863 5863 5864 5864 5867 5872 5876 5878 5879 5880 5882 5884 5885 5887 5888 5889 5893 5897 5900 5903 5903 5904 5902 5895 5897 5901 5898 5899 5899 5898 5898 5897 5897 5898 5898 5899 5899 5900 5900 5901 5901 5902 5903 5904 5905
5854 5854 5853 5852 5851 5850 5850 5850 5850 5850 5850 5849 5849 5849 5849 5849 5849 5849 5849 5851 5852 5849 5850 5852 5851 5853 5852 5851 5853 5853 5854 5855 5854 5854 5855 5856 5857 5857 5857 5859 5860 5860 5861 5860 5862 5862 5864 5868 5871 5873 5874 5876 5877 5879 5881 5883 5884 5885 5887 5889 5892 5896 5900 5902 5904 5904 5896 5894 5899 5898 5897 5897 5897 5897 5896 5896 5897 5898 5898 5898 5899 5899 5900 5901 5902 5903 5904 5904
5850 5850 5849 5849 5847 5846 5846 5846 5845 5845 5845 5845 5846 5845 5845 5845 5844 5845 5845 5846 5849 5847 5845 5847 5849 5850 5850 5849 5849 5850 5852 5851 5850 5851 5853 5854 5855 5854 5855 5857 5857 5857 5858 5859 5860 5860 5862 5866 5867 5868 5870 5872 5874 5876 5878 5880 5881 5882 5885 5887 5890 5893 5897 5900 5903 5905 5898 5893 5896 5897 5894 5894 5895 5895 5895 5895 5895 5896 5897 5897 5898 5898 5899 5900 5901 5902 5902 5903
5845 5845 5845 5845 5843 5842 5842 5842 5841 5841 5841 5841 5842 5842 5841 5841 5840 5841 5841 5840 5844 5845 5842 5843 5845 5847 5847 5846 5845 5847 5848 5847 5848 5849 5849 5851 5852 5851 5852 5854 5853 5854 5856 5857 5857 5858 5860 5862 5863 5864 5866 5868 5870 5872 5874 5877 5879 5880 5881 5884 5888 5892 5895 5898 5900 5903 5899 5893 5892 5894 5892 5892 5893 5893 5894 5894 5893 5894 5895 5896 5896 5897 5898 5899 5900 5901 5902 5902
5839 5839 5840 5840 5839 5838 5837 5837 5837 5836 5837 5837 5838 5837 5837 5837 5836 5837 5837 5835 5838 5841 5839 5839 5841 5843 5844 5843 5843 5843 5842 5843 5847 5846 5845 5848 5849 5848 5849 5849 5851 5853 5853 5854 5854 5855 5858 5859 5860 5861 5863 5865 5866 5868 5871 5874 5876 5877 5880 5883 5886 5889 5893 5895 5897 5900 5898 5893 5891 5892 5891 5891 5891 5892 5892 5892 5892 5892 5893 5894 5895 5896 5897 5898 5900 5900 5901 5901
5834 5834 5834 5834 5834 5834 5832 5832 5833 5832 5832 5833 5833 5833 5833 5833 5833 5833 5833 5831 5833 5835 5836 5837 5838 5839 5840 5839 5839 5839 5838 5840 5843 5842 5842 5845 5846 5844 5845 5846 5848 5850 5851 5851 5850 5852 5855 5857 5857 5858 5859 5861 5862 5864 5868 5872 5872 5874 5879 5883 5884 5885 5889 5891 5894 5896 5896 5893 5890 5889 5888 5888 5888 5889 5890 5891 5891 5891 5890 5892 5893 5894 5895 5897 5898 5899 5900 5900
5828 5828 5829 5829 5828 5829 5828 5826 5827 5827 5827 5828 5828 5828 5829 5829 5829 5829 5828 5827 5828 5830 5831 5834 5834 5834 5834 5834 5836 5836 5835 5836 5838 5839 5840 5840 5842 5841 5841 5843 5845 5847 5848 5847 5847 5850 5853 5854 5854 5855 5856 5857 5859 5861 5866 5868 5869 5872 5878 5881 5883 5884 5885 5888 5891 5893 5894 5893 5889 5887 5886 5884 5884 5886 5887 5888 5888 5888 5888 5889 5891 5892 5893 5894 5896 5897 5898 5899
5822 5822 5823 5823 5822 5823 5824 5822 5821 5821 5821 5823 5823 5823 5824 5824 5824 5825 5823 5823 5826 5827 5826 5828 5829 5829 5829 5829 5832 5833 5831 5833 5834 5834 5835 5836 5838 5838 5838 5841 5841 5842 5843 5842 5844 5847 5849 5850 5851 5852 5853 5855 5857 5859 5862 5864 5865 5871 5876 5877 5881 5883 5884 5885 5887 5889 5892 5889 5887 5887 5885 5881 5882 5883 5884 5884 5884 5885 5887 5888 5888 5889 5891 5892 5894 5895 5895 5896
5815 5815 5815 5816 5816 5816 5817 5816 5816 5815 5815 5816 5816 5817 5818 5818 5819 5819 5817 5819 5824 5823 5820 5821 5823 5825 5825 5825 5827 5828 5827 5830 5830 5827 5830 5834 5834 5834 5835 5837 5837 5837 5838 5839 5840 5843 5845 5847 5848 5848 5850 5853 5855 5855 5857 5860 5863 5868 5872 5874 5877 5880 5882 5883 5883 5885 5886 5882 5883 5887 5885 5880 5878 5879 5880 5881 5882 5884 5886 5886 5887 5887 5888 5890 5891 5892 5893 5895
5808 5807 5807 5808 5808 5809 5809 5808 5810 5810 5808 5809 5809 5810 5811 5812 5813 5811 5812 5817 5819 5817 5816 5817 5818 5819 5821 5821 5822 5823 5823 5826 5825 5821 5825 5830 5829 5829 5831 5833 5833 5833 5834 5835 5837 5840 5842 5843 5844 5845 5848 5850 5851 5852 5853 5856 5860 5864 5867 5870 5873 5875 5879 5880 5880 5881 5879 5876 5879 5884 5886 5881 5875 5875 5878 5879 5880 5883 5884 5884 5885 5885 5886 5888 5889 5890 5891 5893
5800 5799 5799 5800 5800 5801 5800 5800 5802 5802 5802 5802 5802 5803 5804 5805 5805 5804 5809 5814 5812 5811 5811 5811 5812 5813 5815 5817 5817 5818 5819 5820 5820 5818 5821 5825 5825 5825 5827 5829 5830 5830 5830 5832 5834 5836 5838 5839 5841 5842 5844 5847 5847 5848 5850 5852 5855 5858 5861 5865 5869 5871 5873 5874 5875 5875 5873 5874 5876 5880 5883 5879 5873 5874 5877 5877 5878 5880 5882 5882 5883 5884 5884 5885 5886 5887 5889 5891
5791 5791 5790 5791 5792 5793 5792 5792 5793 5793 5794 5795 5794 5795 5797 5796 5797 5801 5806 5807 5806 5808 5806 5803 5805 5806 5808 5812 5812 5812 5814 5814 5814 5814 5816 5819 5820 5820 5822 5824 5825 5826 5828 5829 5830 5831 5832 5834 5836 5836 5839 5842 5843 5844 5846 5848 5848 5851 5855 5859 5862 5864 5866 5867 5869 5870 5870 5872 5875 5878 5879 5875 5873 5874 5874 5875 5876 5877 5879 5880 5881 5882 5882 5883 5883 5885 5887 5888
5782 5782 5782 5781 5782 5783 5784 5783 5784 5784 5785 5785 5785 5787 5787 5787 5792 5798 5799 5800 5801 5803 5800 5798 5800 5800 5799 5804 5807 5807 5807 5808 5810 5809 5810 5813 5814 5815 5816 5819 5820 5822 5825 5826 5825 5826 5827 5828 5831 5833 5835 5838 5840 5842 5844 5845 5845 5847 5852 5855 5856 5858 5860 5862 5864 5866 5868 5871 5873 5875 5872 5869 5872 5874 5873 5873 5874 5875 5876 5878 5879 5879 5880 5881 5881 5883 5884 5885
5773 5773 5773 5772 5772 5773 5774 5774 5774 5775 5775 5776 5776 5777 5778 5782 5788 5791 5791 5792 5794 5796 5796 5794 5795 5794 5793 5795 5798 5802 5802 5802 5804 5804 5804 5806 5808 5810 5811 5814 5817 5818 5820 5821 5820 5822 5822 5823 5827 5831 5832 5834 5837 5839 5841 5842 5842 5844 5849 5850 5850 5854 5857 5859 5862 5865 5868 5869 5868 5869 5867 5867 5872 5874 5873 5872 5872 5873 5874 5876 5877 5876 5877 5878 5878 5879 5882 5883
5763 5763 5763 5762 5762 5763 5763 5764 5764 5764 5765 5766 5766 5767 5772 5777 5781 5781 5783 5785 5785 5788 5790 5789 5788 5788 5788 5789 5790 5794 5797 5797 5797 5797 5797 5799 5802 5804 5806 5809 5812 5813 5814 5817 5818 5819 5819 5820 5823 5826 5828 5829 5831 5834 5836 5837 5839 5841 5843 5843 5846 5853 5855 5856 5859 5863 5866 5864 5862 5863 5865 5868 5870 5871 5871 5870 5870 5872 5872 5872 5874 5874 5874 5876 5875 5876 5879 5882
5752 5752 5751 5750 5752 5752 5752 5754 5753 5752 5754 5754 5754 5760 5766 5769 5770 5771 5774 5776 5777 5779 5780 5780 5781 5781 5783 5784 5784 5786 5789 5791 5792 5791 5791 5792 5794 5798 5801 5803 5806 5808 5810 5813 5815 5816 5817 5818 5819 5820 5822 5825 5827 5829 5831 5833 5836 5838 5838 5839 5845 5850 5850 5851 5855 5859 5860 5857 5857 5861 5863 5866 5867 5867 5868 5868 5868 5869 5869 5869 5871 5871 5871 5873 5874 5874 5875 5879
5740 5741 5739 5737 5741 5741 5740 5742 5742 5741 5742 5741 5745 5754 5757 5757 5760 5762 5764 5766 5767 5768 5768 5770 5773 5774 5776 5777 5778 5781 5782 5783 5785 5786 5786 5786 5787 5791 5795 5798 5800 5802 5806 5809 5810 5812 5814 5815 5817 5816 5817 5819 5822 5823 5825 5828 5831 5833 5835 5838 5842 5843 5842 5844 5848 5852 5853 5851 5853 5858 5860 5861 5862 5864 5866 5866 5867 5868 5867 5867 5868 5869 5870 5870 5873 5873 5872 5876
5727 5729 5725 5724 5728 5727 5727 5729 5729 5728 5728 5730 5737 5744 5745 5746 5749 5751 5753 5755 5756 5757 5758 5761 5764 5765 5768 5770 5771 5775 5776 5776 5779 5780 5780 5781 5783 5784 5787 5792 5795 5797 5800 5804 5805 5808 5809 5810 5813 5814 5814 5815 5815 5816 5820 5823 5826 5829 5831 5833 5836 5837 5837 5840 5843 5845 5847 5848 5851 5855 5855 5855 5858 5862 5865 5865 5866 5866 5865 5864 5865 5868 5870 5870 5872 5873 5871 5872
5712 5715 5712 5710 5712 5711 5713 5715 5714 5714 5715 5718 5726 5730 5732 5735 5737 5739 5742 5744 5745 5746 5749 5753 5754 5755 5758 5762 5763 5767 5770 5771 5773 5773 5773 5775 5778 5780 5781 5784 5789 5792 5793 5796 5800 5804 5804 5804 5808 5812 5812 5810 5806 5808 5815 5820 5821 5823 5825 5826 5829 5832 5833 5836 5839 5841 5842 5843 5847 5850 5850 5852 5856 5860 5863 5865 5865 5863 5863 5864 5863 5865 5869 5870 5871 5874 5872 5869
5696 5698 5697 5695 5694 5694 5697 5700 5700 5701 5701 5705 5712 5715 5718 5721 5723 5726 5730 5731 5733 5736 5738 5740 5743 5745 5748 5752 5755 5759 5763 5766 5768 5768 5767 5768 5771 5775 5776 5778 5782 5786 5788 5788 5792 5797 5799 5798 5801 5806 5808 5805 5802 5805 5810 5814 5816 5819 5821 5822 5825 5828 5830 5831 5833 5836 5838 5839 5842 5845 5846 5848 5854 5858 5859 5862 5863 5860 5860 5863 5862 5860 5864 5866 5868 5872 5874 5870
5678 5681 5681 5679 5677 5677 5680 5683 5686 5687 5685 5691 5697 5699 5703 5707 5710 5714 5718 5718 5720 5724 5726 5727 5731 5734 5736 5741 5746 5749 5753 5757 5760 5763 5763 5763 5765 5768 5772 5774 5776 5780 5783 5783 5784 5790 5795 5795 5795 5798 5802 5803 5804 5804 5804 5806 5811 5814 5815 5818 5821 5822 5825 5826 5827 5832 5835 5835 5837 5841 5840 5842 5850 5855 5856 5859 5861 5859 5858 5860 5860 5859 5860 5862 5864 5869 5872 5869
5661 5665 5668 5663 5660 5661 5661 5664 5671 5671 5669 5676 5681 5683 5688 5692 5695 5700 5703 5705 5708 5711 5713 5714 5720 5724 5725 5731 5736 5738 5741 5744 5749 5755 5759 5760 5760 5761 5765 5770 5772 5775 5777 5778 5779 5782 5786 5789 5789 5791 5795 5799 5803 5803 5800 5800 5804 5806 5808 5812 5814 5815 5818 5821 5825 5828 5830 5830 5833 5836 5834 5836 5844 5851 5853 5854 5856 5857 5858 5859 5859 5860 5860 5861 5863 5866 5868 5867
5644 5648 5653 5650 5644 5644 5645 5649 5656 5656 5656 5661 5665 5668 5674 5677 5681 5685 5687 5690 5694 5698 5700 5702 5708 5713 5715 5719 5723 5726 5730 5733 5737 5743 5749 5753 5756 5758 5760 5764 5767 5769 5771 5774 5775 5775 5777 5781 5784 5785 5787 5792 5796 5797 5795 5794 5795 5798 5802 5806 5808 5811 5814 5817 5822 5825 5824 5825 5828 5831 5831 5833 5840 5846 5848 5849 5851 5853 5857 5857 5856 5858 5859 5861 5863 5865 5866 5865
5628 5631 5637 5637 5631 5630 5632 5635 5639 5640 5641 5644 5647 5652 5657 5659 5663 5668 5671 5676 5680 5683 5687 5690 5696 5701 5704 5707 5710 5714 5719 5722 5725 5731 5736 5742 5750 5755 5757 5760 5761 5763 5765 5769 5771 5771 5771 5773 5777 5778 5779 5782 5786 5789 5789 5789 5791 5794 5798 5801 5803 5806 5809 5812 5816 5819 5819 5821 5824 5826 5828 5833 5839 5842 5843 5845 5848 5849 5851 5851 5852 5855 5858 5859 5861 5861 5862 5862
5612 5615 5621 5623 5619 5617 5619 5621 5624 5625 5625 5627 5630 5636 5640 5641 5645 5650 5653 5658 5665 5671 5674 5678 5683 5687 5690 5694 5697 5700 5708 5713 5716 5721 5728 5734 5740 5747 5752 5756 5758 5757 5758 5761 5764 5765 5766 5767 5769 5771 5774 5777 5780 5785 5789 5789 5789 5791 5793 5797 5799 5801 5804 5807 5809 5810 5813 5818 5820 5820 5824 5830 5836 5839 5840 5842 5845 5846 5846 5845 5848 5852 5854 5857 5858 5856 5856 5858
5598 5601 5605 5606 5606 5607 5608 5609 5612 5612 5611 5612 5615 5622 5627 5630 5635 5640 5642 5644 5650 5654 5658 5664 5671 5674 5678 5684 5687 5690 5697 5704 5707 5712 5719 5725 5730 5737 5744 5749 5750 5749 5750 5753 5756 5759 5761 5762 5762 5764 5768 5773 5776 5781 5786 5788 5788 5787 5789 5792 5794 5796 5799 5802 5803 5805 5809 5813 5813 5814 5819 5824 5829 5833 5837 5839 5840 5843 5843 5841 5844 5848 5850 5853 5855 5853 5854 5856
5588 5590 5592 5591 5592 5596 5597 5597 5599 5600 5599 5601 5602 5606 5613 5618 5623 5629 5632 5636 5637 5635 5636 5644 5652 5655 5661 5668 5673 5677 5684 5692 5698 5704 5712 5717 5722 5728 5735 5740 5743 5743 5743 5746 5750 5753 5754 5756 5758 5759 5762 5767 5771 5774 5780 5785 5785 5785 5787 5788 5789 5791 5793 5796 5798 5801 5804 5805 5806 5811 5816 5818 5822 5826 5830 5834 5836 5839 5841 5839 5840 5844 5846 5847 5849 5849 5850 5851
5580 5580 5581 5581 5581 5583 5585 5587 5588 5589 5591 5593 5593 5596 5602 5606 5610 5615 5620 5626 5628 5625 5625 5628 5632 5635 5639 5645 5652 5660 5668 5674 5680 5690 5701 5708 5713 5718 5723 5730 5737 5738 5737 5739 5743 5745 5745 5747 5752 5755 5759 5763 5765 5767 5772 5778 5781 5783 5783 5784 5786 5787 5788 5790 5793 5796 5799 5799 5803 5809 5812 5812 5816 5819 5823 5827 5830 5833 5836 5836 5836 5838 5840 5843 5843 5842 5844 5845
5574 5572 5572 5572 5573 5575 5577 5580 5581 5582 5585 5587 5587 5590 5594 5597 5600 5605 5611 5615 5617 5618 5618 5619 5622 5626 5630 5636 5641 5644 5648 5651 5658 5670 5683 5692 5700 5707 5712 5719 5727 5731 5730 5731 5733 5735 5736 5740 5745 5749 5753 5757 5759 5761 5765 5769 5773 5777 5779 5780 5782 5784 5785 5786 5788 5790 5793 5796 5800 5804 5805 5805 5809 5813 5817 5822 5824 5825 5828 5830 5832 5833 5835 5838 5839 5840 5842 5842
5568 5567 5565 5566 5568 5570 5572 5574 5576 5576 5578 5580 5581 5584 5587 5590 5593 5597 5602 5605 5607 5611 5613 5613 5618 5622 5626 5631 5632 5630 5633 5640 5648 5659 5668 5675 5683 5690 5696 5704 5714 5721 5723 5723 5724 5727 5731 5736 5740 5742 5745 5748 5754 5758 5761 5764 5766 5768 5770 5773 5776 5778 5782 5785 5786 5785 5787 5791 5795 5799 5799 5801 5804 5807 5812 5816 5818 5819 5821 5823 5827 5829 5830 5832 5834 5836 5839 5841
5562 5562 5561 5561 5564 5566 5567 5568 5570 5571 5573 5575 5576 5577 5579 5582 5584 5586 5589 5592 5598 5605 5607 5607 5613 5617 5620 5622 5622 5623 5629 5636 5643 5651 5656 5661 5670 5677 5683 5690 5700 5710 5715 5717 5719 5722 5725 5729 5733 5736 5739 5743 5748 5752 5757 5760 5760 5759 5760 5765 5770 5774 5778 5783 5783 5781 5783 5786 5789 5792 5794 5797 5800 5803 5807 5810 5810 5813 5816 5819 5821 5825 5827 5828 5830 5831 5833 5836